When you browse on this site, cookies collect data to enhance your experience and personalize the content and advertising you see.
Visit our Privacy Policy to learn more. By continuing to use the site, you agree to this use of cookies and data.
  • In Hungary
  • List of Countries
  • For 7 days
  • Water Temperature
  • Weather Map
  • News
  • Weather Widgets
  • user-avatar
    Login

    Hourly Weather Efimlevo

    Today, 23 February, Sunday

    Time Temperature Precipitation Wind Pressure Humidity
    00:00 -3°C° 1.1 mm 9 mps 731 mmHg 94%
    01:00 -3°C° 1.1 mm 9 mps 730 mmHg 94%
    02:00 -3°C° 0 mm 9 mps 729 mmHg 93%
    03:00 -2°C° 0.4 mm 8 mps 728 mmHg 94%
    04:00 -2°C° 0.4 mm 7 mps 728 mmHg 95%
    05:00 -1°C° 0.4 mm 6 mps 727 mmHg 96%
    06:00 -1°C° 1.1 mm 6 mps 727 mmHg 92%
    07:00 -1°C° 1.1 mm 6 mps 726 mmHg 88%
    08:00 -1°C° 0 mm 7 mps 726 mmHg 86%
    09:00 0°C° 0.1 mm 7 mps 726 mmHg 83%
    10:00 +1°C° 0.1 mm 6 mps 726 mmHg 80%
    11:00 +1°C° 0.1 mm 6 mps 726 mmHg 77%
    12:00 +1°C° 0.1 mm 6 mps 726 mmHg 76%
    13:00 +1°C° 0.1 mm 5 mps 726 mmHg 76%
    14:00 +1°C° 0 mm 5 mps 726 mmHg 78%
    15:00 0°C° 0 mm 5 mps 726 mmHg 81%
    16:00 0°C° 0 mm 5 mps 726 mmHg 84%
    17:00 0°C° 0 mm 4 mps 726 mmHg 87%
    18:00 0°C° 0.1 mm 5 mps 726 mmHg 87%
    19:00 0°C° 0.1 mm 5 mps 726 mmHg 86%
    20:00 -1°C° 0.1 mm 6 mps 726 mmHg 86%
    21:00 0°C° 0 mm 5 mps 725 mmHg 86%
    22:00 -1°C° 0 mm 5 mps 725 mmHg 86%
    23:00 -1°C° 0 mm 5 mps 725 mmHg 86%

    Tomorrow, 24 February, Monday

    Time Temperature Precipitation Wind Pressure Humidity
    00:00 -1°C° 0 mm 5 mps 725 mmHg 87%
    01:00 -1°C° 0 mm 5 mps 725 mmHg 87%
    02:00 -1°C° 0 mm 4 mps 725 mmHg 87%
    03:00 -2°C° 0 mm 4 mps 724 mmHg 88%
    04:00 -2°C° 0 mm 4 mps 724 mmHg 90%
    05:00 -1°C° 0 mm 3 mps 724 mmHg 91%
    06:00 -1°C° 0 mm 3 mps 724 mmHg 90%
    07:00 -1°C° 0 mm 3 mps 725 mmHg 89%
    08:00 -1°C° 0 mm 3 mps 725 mmHg 88%
    09:00 0°C° 0 mm 3 mps 725 mmHg 88%
    10:00 0°C° 0 mm 3 mps 725 mmHg 89%
    11:00 -1°C° 0 mm 4 mps 726 mmHg 90%
    12:00 0°C° 0.1 mm 4 mps 726 mmHg 84%
    13:00 0°C° 0.1 mm 4 mps 726 mmHg 78%
    14:00 +1°C° 0.1 mm 4 mps 727 mmHg 72%
    15:00 0°C° 0.1 mm 4 mps 727 mmHg 74%
    16:00 0°C° 0.1 mm 4 mps 728 mmHg 77%
    17:00 -1°C° 0.1 mm 4 mps 728 mmHg 80%
    18:00 -2°C° 0 mm 4 mps 729 mmHg 78%
    19:00 -2°C° 0 mm 3 mps 730 mmHg 77%
    20:00 -4°C° 0 mm 3 mps 730 mmHg 76%
    21:00 -4°C° 0 mm 3 mps 731 mmHg 77%
    22:00 -4°C° 0 mm 3 mps 731 mmHg 77%
    23:00 -4°C° 0 mm 3 mps 731 mmHg 77%

    Day after tomorrow, 25 February, Tuesday

    Time Temperature Precipitation Wind Pressure Humidity
    00:00 -4°C° 0 mm 3 mps 732 mmHg 78%
    01:00 -4°C° 0 mm 3 mps 732 mmHg 79%
    02:00 -4°C° 0 mm 3 mps 732 mmHg 81%
    03:00 -4°C° 0 mm 3 mps 732 mmHg 81%
    04:00 -4°C° 0 mm 3 mps 732 mmHg 82%
    05:00 -5°C° 0 mm 3 mps 732 mmHg 83%
    06:00 -4°C° 0 mm 3 mps 732 mmHg 82%
    07:00 -4°C° 0 mm 3 mps 732 mmHg 82%
    08:00 -4°C° 0 mm 3 mps 733 mmHg 81%
    09:00 -2°C° 0 mm 3 mps 732 mmHg 75%
    10:00 -1°C° 0 mm 3 mps 732 mmHg 68%
    11:00 0°C° 0 mm 3 mps 732 mmHg 62%
    12:00 0°C° 0 mm 3 mps 732 mmHg 59%
    13:00 0°C° 0 mm 3 mps 731 mmHg 56%
    14:00 +1°C° 0 mm 3 mps 731 mmHg 53%
    15:00 0°C° 0 mm 3 mps 731 mmHg 57%
    16:00 -1°C° 0 mm 3 mps 730 mmHg 62%
    17:00 -1°C° 0 mm 3 mps 730 mmHg 67%
    18:00 -1°C° 0 mm 3 mps 729 mmHg 68%
    19:00 -2°C° 0 mm 4 mps 728 mmHg 70%
    20:00 -2°C° 0 mm 4 mps 728 mmHg 71%
    21:00 -2°C° 0.2 mm 4 mps 727 mmHg 79%
    22:00 -2°C° 0.2 mm 5 mps 726 mmHg 87%
    23:00 -2°C° 0.2 mm 5 mps 725 mmHg 95%

    26 February, Wednesday

    Time Temperature Precipitation Wind Pressure Humidity
    00:00 -1°C° 0.4 mm 5 mps 724 mmHg 95%
    01:00 -1°C° 0.4 mm 5 mps 723 mmHg 95%
    02:00 0°C° 0.4 mm 5 mps 723 mmHg 96%
    03:00 0°C° 0.2 mm 5 mps 722 mmHg 93%
    04:00 0°C° 0.2 mm 5 mps 722 mmHg 91%
    05:00 +1°C° 0.2 mm 5 mps 722 mmHg 89%
    06:00 0°C° 0.1 mm 4 mps 722 mmHg 90%
    07:00 -1°C° 0.1 mm 4 mps 722 mmHg 92%
    08:00 0°C° 0.1 mm 3 mps 722 mmHg 93%
    09:00 0°C° 0 mm 3 mps 722 mmHg 89%
    10:00 0°C° 0 mm 4 mps 723 mmHg 84%
    11:00 +1°C° 0 mm 4 mps 723 mmHg 79%
    12:00 +1°C° 0 mm 4 mps 723 mmHg 77%
    13:00 +1°C° 0 mm 4 mps 723 mmHg 74%
    14:00 +3°C° 0 mm 4 mps 723 mmHg 71%
    15:00 +1°C° 0 mm 4 mps 723 mmHg 74%
    16:00 +1°C° 0 mm 3 mps 723 mmHg 78%
    17:00 0°C° 0 mm 3 mps 723 mmHg 81%
    18:00 0°C° 0 mm 3 mps 724 mmHg 81%
    19:00 0°C° 0 mm 3 mps 724 mmHg 82%
    20:00 -1°C° 0 mm 3 mps 724 mmHg 82%
    21:00 -1°C° 0 mm 3 mps 724 mmHg 82%
    22:00 -1°C° 0 mm 3 mps 725 mmHg 81%
    23:00 -2°C° 0 mm 4 mps 725 mmHg 81%

    27 February, Thursday

    Time Temperature Precipitation Wind Pressure Humidity
    00:00 -2°C° 0 mm 4 mps 725 mmHg 82%
    01:00 -2°C° 0 mm 4 mps 725 mmHg 83%
    02:00 -2°C° 0 mm 4 mps 725 mmHg 83%
    03:00 -2°C° 0 mm 4 mps 725 mmHg 83%
    04:00 -2°C° 0 mm 4 mps 725 mmHg 83%
    05:00 -2°C° 0 mm 4 mps 726 mmHg 83%
    06:00 -2°C° 0 mm 4 mps 726 mmHg 83%
    07:00 -2°C° 0 mm 4 mps 727 mmHg 82%
    08:00 -1°C° 0 mm 3 mps 727 mmHg 82%
    09:00 -1°C° 0 mm 3 mps 728 mmHg 80%
    10:00 -1°C° 0 mm 3 mps 728 mmHg 77%
    11:00 -1°C° 0 mm 4 mps 728 mmHg 75%
    12:00 0°C° 0 mm 3 mps 729 mmHg 74%
    13:00 0°C° 0 mm 3 mps 729 mmHg 73%
    14:00 +1°C° 0 mm 2 mps 729 mmHg 72%
    15:00 -1°C° 0 mm 2 mps 729 mmHg 75%
    16:00 +1°C° 0 mm 1 mps 729 mmHg 77%
    17:00 +1°C° 0 mm 1 mps 729 mmHg 80%
    18:00 0°C° 0 mm 1 mps 729 mmHg 80%
    19:00 0°C° 0 mm 1 mps 729 mmHg 81%
    20:00 -3°C° 0 mm 2 mps 729 mmHg 82%
    21:00 -3°C° 0 mm 2 mps 729 mmHg 82%
    22:00 -3°C° 0 mm 2 mps 729 mmHg 82%
    23:00 -3°C° 0 mm 2 mps 728 mmHg 83%

    28 February, Friday

    Time Temperature Precipitation Wind Pressure Humidity
    00:00 -3°C° 0 mm 2 mps 728 mmHg 82%
    01:00 -4°C° 0 mm 2 mps 728 mmHg 82%
    02:00 -4°C° 0 mm 2 mps 728 mmHg 82%
    03:00 -4°C° 0 mm 2 mps 728 mmHg 81%
    04:00 -5°C° 0 mm 2 mps 729 mmHg 80%
    05:00 -5°C° 0 mm 2 mps 729 mmHg 79%
    06:00 -5°C° 0 mm 2 mps 729 mmHg 76%
    07:00 -5°C° 0 mm 2 mps 729 mmHg 74%
    08:00 -6°C° 0 mm 3 mps 729 mmHg 71%
    09:00 -5°C° 0 mm 3 mps 729 mmHg 66%
    10:00 -5°C° 0 mm 3 mps 729 mmHg 61%
    11:00 -4°C° 0 mm 3 mps 729 mmHg 56%
    12:00 -4°C° 0 mm 3 mps 729 mmHg 54%
    13:00 -4°C° 0 mm 3 mps 729 mmHg 52%
    14:00 -2°C° 0 mm 3 mps 728 mmHg 50%
    15:00 -4°C° 0 mm 3 mps 728 mmHg 53%
    16:00 -4°C° 0 mm 3 mps 729 mmHg 56%
    17:00 -4°C° 0 mm 2 mps 729 mmHg 59%
    18:00 -4°C° 0 mm 2 mps 729 mmHg 61%
    19:00 -4°C° 0 mm 2 mps 729 mmHg 63%
    20:00 -5°C° 0 mm 2 mps 729 mmHg 65%
    21:00 -6°C° 0 mm 3 mps 730 mmHg 65%
    22:00 -6°C° 0 mm 3 mps 730 mmHg 65%
    23:00 -6°C° 0 mm 3 mps 730 mmHg 66%
    Show more